Tracking 33877 objects as of 19-Apr-2026
HD Live streaming from Space Station
objects crossing your sky now

STARLINK-35468

Track STARLINK-35468 now!
10-day predictions
STARLINK-35468 is classified as:


NORAD ID: 66118
Int'l Code: 2025-237E
Perigee: 481.7 km
Apogee: 483.2 km
Inclination: 53.2 °
Period: 94.1 minutes
Semi major axis: 6853 km
RCS: Unknown
Launch date: October 22, 2025
Source: United States (US)
Launch site: AIR FORCE WESTERN TEST RANGE (AFWTR)
Your satellite tracking list
Your tracking list is empty




NASA's NSSDC Master Catalog

Two Line Element Set (TLE):
1 66118U 25237E   26109.48715900 -.00003922  00000-0 -12043-3 0  9994
2 66118  53.1593 210.3522 0001094  67.8541 292.2576 15.30180810 28853
Source of the keplerian elements: AFSPC